TimeEST,TemperatureF,Dew PointF,Humidity,Sea Level PressureIn,VisibilityMPH,Wind Direction,Wind SpeedMPH,Gust SpeedMPH,PrecipitationIn,Events,Conditions,WindDirDegrees,DateUTC
12:56 AM,36.0,14.0,41,30.49,10.0,ENE,10.4,19.6,N/A,,Clear,70,2013-11-25 05:56:00
1:56 AM,35.1,12.9,40,30.49,10.0,ENE,11.5,-,N/A,,Clear,60,2013-11-25 06:56:00
2:56 AM,35.1,12.9,40,30.50,10.0,ENE,9.2,-,N/A,,Clear,70,2013-11-25 07:56:00
3:56 AM,33.1,12.9,43,30.49,10.0,NE,10.4,-,N/A,,Clear,40,2013-11-25 08:56:00
4:56 AM,33.1,10.0,38,30.48,10.0,NE,12.7,-,N/A,,Clear,40,2013-11-25 09:56:00
5:56 AM,34.0,10.9,38,30.49,10.0,NE,12.7,-,N/A,,Clear,40,2013-11-25 10:56:00
6:56 AM,33.1,10.0,38,30.49,10.0,NE,12.7,-,N/A,,Mostly Cloudy,50,2013-11-25 11:56:00
7:56 AM,36.0,12.9,39,30.49,10.0,NE,12.7,-,N/A,,Mostly Cloudy,50,2013-11-25 12:56:00
8:56 AM,39.9,16.0,38,30.49,10.0,ENE,15.0,-,N/A,,Mostly Cloudy,60,2013-11-25 13:56:00
9:56 AM,43.0,19.0,38,30.49,10.0,ENE,12.7,23.0,N/A,,Scattered Clouds,60,2013-11-25 14:56:00
10:56 AM,48.0,24.1,39,30.49,10.0,NE,12.7,-,N/A,,Scattered Clouds,50,2013-11-25 15:56:00
11:56 AM,50.0,27.0,41,30.45,6.0,ENE,12.7,21.9,N/A,,Haze,60,2013-11-25 16:56:00
12:40 PM,50.0,28.9,44,30.43,6.0,East,8.1,17.3,N/A,,Haze,90,2013-11-25 17:40:00
12:56 PM,50.0,30.0,46,30.42,10.0,East,9.2,-,N/A,,Mostly Cloudy,100,2013-11-25 17:56:00
1:56 PM,51.1,32.0,48,30.39,10.0,ENE,11.5,-,N/A,,Mostly Cloudy,60,2013-11-25 18:56:00
2:56 PM,51.1,35.1,54,30.38,10.0,East,12.7,18.4,N/A,,Overcast,90,2013-11-25 19:56:00
3:56 PM,51.1,37.9,61,30.37,10.0,East,9.2,16.1,N/A,,Overcast,80,2013-11-25 20:56:00
4:56 PM,50.0,39.0,66,30.37,10.0,East,10.4,-,N/A,,Overcast,80,2013-11-25 21:56:00
5:56 PM,50.0,39.9,68,30.36,10.0,NE,12.7,-,N/A,,Overcast,50,2013-11-25 22:56:00
6:56 PM,50.0,39.0,66,30.35,10.0,NE,13.8,-,N/A,,Overcast,50,2013-11-25 23:56:00
7:56 PM,50.0,39.9,68,30.34,10.0,NE,12.7,-,N/A,,Overcast,50,2013-11-26 00:56:00
8:56 PM,48.9,39.9,71,30.32,10.0,NE,15.0,-,N/A,,Overcast,50,2013-11-26 01:56:00
9:56 PM,48.9,42.1,77,30.29,10.0,ENE,11.5,-,0.00,Rain,Light Rain,70,2013-11-26 02:56:00
10:56 PM,48.9,42.1,77,30.27,10.0,NE,9.2,-,0.00,,Overcast,50,2013-11-26 03:56:00
11:03 PM,50.0,43.0,77,30.27,10.0,NE,13.8,-,N/A,,Overcast,50,2013-11-26 04:03:00
11:27 PM,48.9,43.0,80,30.24,10.0,ENE,9.2,-,N/A,,Overcast,60,2013-11-26 04:27:00
11:56 PM,48.9,44.1,83,30.23,10.0,ENE,6.9,-,N/A,,Partly Cloudy,60,2013-11-26 04:56:00